Terug naar catalogus

STARLINK-3862

ActiefCommunicatieVLEO
NORAD 52471·PAYLOAD·🇺🇸 United States

Gelanceerd May 6, 2022 vanaf Cape Canaveral Space Force Station

Loading…

Volgende Passages (komende 24 uur)

TLE

VersSource: CelesTrak SupGP

Epoch: Sep 14, 2026, 20:19 UTC

1 52471C 22049W   26257.84701389  .00016302  00000+0  52436-3 0  2579
2 52471  53.1584 276.1252 0001264  82.4684 285.4287 15.31685110    15

Volg STARLINK-3862 in realtime met AllMySat

Download on the App Store